• In Spain
  • List of Countries
  • For 7 days
  • Water Temperature
  • Satellite Maps
  • Weather Map
  • Weather Widgets
  • user-avatar
    Login

    Hourly Weather Lezhe

    Today, 22 August, Tuesday

    Time Temperature Precipitation Wind Pressure Humidity
    00:00 +17°C° 0 mm 5 mps 737 mmHg 70%
    01:00 +17°C° 0 mm 4 mps 737 mmHg 74%
    02:00 +17°C° 0 mm 4 mps 737 mmHg 74%
    03:00 +15°C° 0 mm 4 mps 737 mmHg 74%
    04:00 +15°C° 0 mm 4 mps 737 mmHg 74%
    05:00 +17°C° 0 mm 4 mps 738 mmHg 68%
    06:00 +17°C° 0 mm 5 mps 738 mmHg 62%
    07:00 +20°C° 0 mm 5 mps 738 mmHg 52%
    08:00 +21°C° 0 mm 5 mps 738 mmHg 46%
    09:00 +23°C° 0 mm 4 mps 738 mmHg 40%
    10:00 +26°C° 0 mm 4 mps 738 mmHg 34%
    11:00 +27°C° 0 mm 4 mps 738 mmHg 31%
    12:00 +28°C° 0 mm 4 mps 738 mmHg 29%
    13:00 +29°C° 0 mm 4 mps 737 mmHg 26%
    14:00 +29°C° 0 mm 4 mps 737 mmHg 27%
    15:00 +29°C° 0 mm 5 mps 737 mmHg 27%
    16:00 +29°C° 0 mm 5 mps 737 mmHg 28%
    17:00 +26°C° 0 mm 5 mps 737 mmHg 35%
    18:00 +23°C° 0 mm 4 mps 737 mmHg 41%
    19:00 +20°C° 0 mm 4 mps 737 mmHg 48%
    20:00 +20°C° 0 mm 4 mps 737 mmHg 49%
    21:00 +19°C° 0 mm 3 mps 738 mmHg 51%
    22:00 +18°C° 0 mm 3 mps 738 mmHg 52%
    23:00 +18°C° 0 mm 3 mps 738 mmHg 54%

    Tomorrow, 23 August, Wednesday

    Time Temperature Precipitation Wind Pressure Humidity
    00:00 +17°C° 0 mm 3 mps 738 mmHg 56%
    01:00 +17°C° 0 mm 3 mps 738 mmHg 58%
    02:00 +17°C° 0 mm 3 mps 738 mmHg 58%
    03:00 +16°C° 0 mm 3 mps 738 mmHg 59%
    04:00 +16°C° 0 mm 3 mps 738 mmHg 60%
    05:00 +18°C° 0 mm 3 mps 738 mmHg 55%
    06:00 +19°C° 0 mm 3 mps 738 mmHg 51%
    07:00 +21°C° 0 mm 2 mps 739 mmHg 46%
    08:00 +24°C° 0 mm 2 mps 739 mmHg 40%
    09:00 +27°C° 0 mm 2 mps 739 mmHg 34%
    10:00 +29°C° 0 mm 1 mps 739 mmHg 28%
    11:00 +30°C° 0 mm 2 mps 739 mmHg 26%
    12:00 +30°C° 0 mm 3 mps 739 mmHg 25%
    13:00 +31°C° 0 mm 3 mps 739 mmHg 23%
    14:00 +31°C° 0 mm 3 mps 739 mmHg 25%
    15:00 +30°C° 0 mm 4 mps 738 mmHg 26%
    16:00 +30°C° 0 mm 4 mps 738 mmHg 28%
    17:00 +27°C° 0 mm 3 mps 738 mmHg 36%
    18:00 +24°C° 0 mm 2 mps 738 mmHg 44%
    19:00 +22°C° 0 mm 1 mps 739 mmHg 52%
    20:00 +20°C° 0 mm 2 mps 739 mmHg 51%
    21:00 +20°C° 0 mm 2 mps 739 mmHg 49%
    22:00 +20°C° 0 mm 2 mps 740 mmHg 47%
    23:00 +19°C° 0 mm 2 mps 740 mmHg 46%

    Day after tomorrow, 24 August, Thursday

    Time Temperature Precipitation Wind Pressure Humidity
    00:00 +19°C° 0 mm 2 mps 740 mmHg 44%
    01:00 +19°C° 0 mm 2 mps 740 mmHg 42%
    02:00 +19°C° 0 mm 2 mps 740 mmHg 43%
    03:00 +18°C° 0 mm 2 mps 739 mmHg 43%
    04:00 +18°C° 0 mm 2 mps 739 mmHg 43%
    05:00 +20°C° 0 mm 2 mps 740 mmHg 42%
    06:00 +23°C° 0 mm 2 mps 740 mmHg 40%
    07:00 +24°C° 0 mm 2 mps 740 mmHg 38%
    08:00 +27°C° 0 mm 2 mps 740 mmHg 34%
    09:00 +29°C° 0 mm 1 mps 740 mmHg 30%
    10:00 +31°C° 0 mm 1 mps 741 mmHg 26%
    11:00 +32°C° 0 mm 2 mps 740 mmHg 25%
    12:00 +34°C° 0 mm 3 mps 740 mmHg 24%
    13:00 +34°C° 0 mm 3 mps 740 mmHg 23%
    14:00 +34°C° 0 mm 4 mps 740 mmHg 24%
    15:00 +34°C° 0 mm 4 mps 739 mmHg 26%
    16:00 +33°C° 0 mm 4 mps 739 mmHg 27%
    17:00 +29°C° 0 mm 3 mps 739 mmHg 34%
    18:00 +27°C° 0 mm 2 mps 740 mmHg 41%
    19:00 +24°C° 0 mm 2 mps 740 mmHg 48%
    20:00 +24°C° 0 mm 2 mps 740 mmHg 46%
    21:00 +23°C° 0 mm 2 mps 740 mmHg 45%
    22:00 +23°C° 0 mm 2 mps 741 mmHg 43%
    23:00 +21°C° 0 mm 2 mps 741 mmHg 43%

    25 August, Friday

    Time Temperature Precipitation Wind Pressure Humidity
    00:00 +21°C° 0 mm 2 mps 741 mmHg 43%
    01:00 +21°C° 0 mm 2 mps 741 mmHg 43%
    02:00 +20°C° 0 mm 2 mps 741 mmHg 44%
    03:00 +20°C° 0 mm 2 mps 741 mmHg 45%
    04:00 +20°C° 0 mm 2 mps 740 mmHg 46%
    05:00 +23°C° 0 mm 2 mps 741 mmHg 44%
    06:00 +24°C° 0 mm 2 mps 741 mmHg 42%
    07:00 +26°C° 0 mm 2 mps 741 mmHg 39%
    08:00 +28°C° 0 mm 2 mps 741 mmHg 34%
    09:00 +31°C° 0 mm 2 mps 741 mmHg 30%
    10:00 +33°C° 0 mm 1 mps 741 mmHg 25%
    11:00 +35°C° 0 mm 2 mps 741 mmHg 23%
    12:00 +36°C° 0 mm 3 mps 740 mmHg 21%
    13:00 +37°C° 0 mm 3 mps 740 mmHg 20%
    14:00 +36°C° 0 mm 3 mps 740 mmHg 21%
    15:00 +36°C° 0 mm 4 mps 739 mmHg 22%
    16:00 +36°C° 0 mm 4 mps 739 mmHg 23%
    17:00 +33°C° 0 mm 3 mps 739 mmHg 29%
    18:00 +29°C° 0 mm 3 mps 739 mmHg 34%
    19:00 +26°C° 0 mm 2 mps 739 mmHg 40%
    20:00 +25°C° 0 mm 2 mps 739 mmHg 39%
    21:00 +25°C° 0 mm 2 mps 740 mmHg 37%
    22:00 +24°C° 0 mm 2 mps 740 mmHg 36%
    23:00 +24°C° 0 mm 2 mps 740 mmHg 35%

    26 August, Saturday

    Time Temperature Precipitation Wind Pressure Humidity
    00:00 +24°C° 0 mm 2 mps 740 mmHg 35%
    01:00 +23°C° 0 mm 2 mps 739 mmHg 35%
    02:00 +23°C° 0 mm 2 mps 739 mmHg 35%
    03:00 +23°C° 0 mm 2 mps 739 mmHg 36%
    04:00 +23°C° 0 mm 2 mps 739 mmHg 36%
    05:00 +24°C° 0 mm 2 mps 739 mmHg 36%
    06:00 +26°C° 0 mm 2 mps 739 mmHg 35%
    07:00 +27°C° 0 mm 2 mps 739 mmHg 34%
    08:00 +30°C° 0 mm 2 mps 739 mmHg 29%
    09:00 +32°C° 0 mm 1 mps 739 mmHg 25%
    10:00 +35°C° 0 mm 1 mps 739 mmHg 21%
    11:00 +36°C° 0 mm 2 mps 739 mmHg 19%
    12:00 +37°C° 0 mm 3 mps 739 mmHg 18%
    13:00 +38°C° 0 mm 3 mps 738 mmHg 17%
    14:00 +37°C° 0 mm 3 mps 738 mmHg 18%
    15:00 +37°C° 0 mm 3 mps 738 mmHg 20%
    16:00 +36°C° 0 mm 3 mps 738 mmHg 21%
    17:00 +33°C° 0 mm 3 mps 738 mmHg 27%
    18:00 +29°C° 0 mm 2 mps 738 mmHg 32%
    19:00 +26°C° 0 mm 1 mps 738 mmHg 38%
    20:00 +26°C° 0 mm 1 mps 738 mmHg 36%
    21:00 +25°C° 0 mm 2 mps 738 mmHg 33%
    22:00 +25°C° 0 mm 2 mps 739 mmHg 31%
    23:00 +25°C° 0 mm 2 mps 738 mmHg 30%

    27 August, Sunday

    Time Temperature Precipitation Wind Pressure Humidity
    00:00 +24°C° 0 mm 2 mps 738 mmHg 30%
    01:00 +24°C° 0 mm 2 mps 738 mmHg 29%
    02:00 +24°C° 0 mm 2 mps 738 mmHg 30%
    03:00 +23°C° 0 mm 2 mps 738 mmHg 30%
    04:00 +23°C° 0 mm 2 mps 738 mmHg 31%
    05:00 +25°C° 0 mm 2 mps 738 mmHg 30%
    06:00 +26°C° 0 mm 2 mps 738 mmHg 30%
    07:00 +28°C° 0 mm 2 mps 739 mmHg 30%
    08:00 +31°C° 0 mm 2 mps 738 mmHg 26%
    09:00 +33°C° 0 mm 1 mps 738 mmHg 22%
    10:00 +36°C° 0 mm 1 mps 738 mmHg 19%
    11:00 +37°C° 0 mm 2 mps 738 mmHg 18%
    12:00 +38°C° 0 mm 3 mps 738 mmHg 17%
    13:00 +38°C° 0 mm 4 mps 737 mmHg 17%
    14:00 +38°C° 0 mm 3 mps 737 mmHg 18%
    15:00 +37°C° 0 mm 3 mps 737 mmHg 19%
    16:00 +37°C° 0 mm 3 mps 737 mmHg 21%
    17:00 +34°C° 0 mm 3 mps 737 mmHg 26%
    18:00 +30°C° 0 mm 2 mps 737 mmHg 32%
    19:00 +27°C° 0 mm 1 mps 737 mmHg 38%
    20:00 +26°C° 0 mm 1 mps 737 mmHg 36%
    21:00 +26°C° 0 mm 2 mps 737 mmHg 33%
    22:00 +26°C° 0 mm 2 mps 737 mmHg 31%
    23:00 +25°C° 0 mm 2 mps 737 mmHg 30%
    Show more